2022/12/09 23:30:24+0000,-35.15,-41.93,-33.62,-34.99,-47.99,-52.54
2022/12/09 23:31:24+0000,-35.72,-41.12,-33.08,-35.30,-48.52,-53.16
2022/12/09 23:32:16+0000,-35.33,-39.93,-33.05,-35.66,-48.51,-53.23
2022/12/09 23:33:08+0000,-35.21,-40.56,-32.45,-34.51,-49.10,-52.16
2022/12/09 23:34:00+0000,-36.43,-42.02,-32.20,-35.33,-48.63,-53.39
2022/12/09 23:34:52+0000,-35.61,-41.74,-33.35,-35.12,-49.06,-53.09
2022/12/09 23:35:44+0000,-35.38,-40.35,-33.22,-34.98,-48.65,-52.07
2022/12/09 23:36:36+0000,-35.88,-40.36,-32.32,-35.67,-49.26,-52.24
2022/12/09 23:37:28+0000,-35.87,-40.72,-32.47,-35.34,-48.70,-53.04
2022/12/09 23:38:20+0000,-36.04,-40.81,-32.68,-35.81,-48.52,-53.31
2022/12/09 23:39:12+0000,-36.38,-41.02,-32.83,-34.75,-49.41,-53.09
2022/12/09 23:40:05+0000,-35.42,-41.10,-31.96,-35.63,-48.69,-53.58
2022/12/09 23:41:04+0000,-35.58,-41.09,-32.17,-35.50,-49.06,-53.89
2022/12/09 23:41:56+0000,-35.69,-41.25,-32.78,-35.07,-49.35,-53.66
2022/12/09 23:42:48+0000,-36.08,-40.97,-32.86,-35.35,-49.23,-53.53
2022/12/09 23:43:40+0000,-35.82,-39.88,-32.60,-35.13,-49.42,-53.56
2022/12/09 23:44:32+0000,-35.84,-40.93,-32.26,-35.09,-49.22,-54.19
2022/12/09 23:45:24+0000,-36.05,-40.94,-32.82,-35.59,-49.06,-53.57
2022/12/09 23:46:16+0000,-35.96,-39.71,-33.22,-34.82,-48.84,-53.60
2022/12/09 23:47:08+0000,-35.98,-40.26,-32.25,-34.74,-49.34,-53.58
2022/12/09 23:48:00+0000,-35.88,-40.83,-32.95,-34.99,-48.72,-53.76
2022/12/09 23:48:52+0000,-35.93,-40.72,-32.91,-34.84,-48.78,-53.80
2022/12/09 23:49:45+0000,-35.49,-40.95,-32.17,-34.98,-49.10,-53.84
2022/12/09 23:50:37+0000,-36.01,-40.95,-31.79,-34.97,-48.93,-53.61
2022/12/09 23:51:35+0000,-36.22,-41.49,-32.28,-34.64,-48.41,-53.87
2022/12/09 23:52:27+0000,-35.46,-41.69,-32.41,-34.88,-48.30,-53.28
2022/12/09 23:53:19+0000,-35.29,-40.37,-32.09,-34.40,-48.44,-53.52
2022/12/09 23:54:11+0000,-35.41,-40.43,-31.71,-34.91,-49.32,-53.83
2022/12/09 23:55:03+0000,-36.90,-40.65,-31.88,-34.95,-48.91,-53.66
2022/12/09 23:55:56+0000,-35.36,-40.42,-32.08,-34.36,-49.13,-53.28
2022/12/09 23:56:48+0000,-35.41,-40.31,-32.59,-34.66,-48.73,-54.04
2022/12/09 23:57:40+0000,-35.62,-40.95,-32.17,-33.62,-48.29,-53.77
2022/12/09 23:58:32+0000,-35.60,-39.63,-32.42,-34.71,-48.53,-54.00
2022/12/09 23:59:24+0000,-35.95,-40.62,-32.15,-34.23,-48.15,-53.44
2022/12/10 00:00:16+0000,-36.05,-41.15,-31.86,-34.19,-47.97,-53.62
2022/12/10 00:01:24+0000,-36.71,-41.07,-32.52,-34.54,-48.58,-53.75
2022/12/10 00:02:16+0000,-35.44,-41.09,-32.35,-34.97,-47.79,-53.55
2022/12/10 00:03:08+0000,-35.57,-41.18,-32.21,-34.34,-48.59,-53.37
2022/12/10 00:04:00+0000,-35.62,-41.82,-31.76,-33.84,-47.54,-52.58
2022/12/10 00:04:52+0000,-35.36,-40.65,-31.87,-34.23,-47.65,-52.62
2022/12/10 00:05:44+0000,-35.91,-40.73,-32.27,-34.55,-47.57,-52.66
2022/12/10 00:06:36+0000,-34.87,-41.18,-32.19,-35.29,-47.90,-53.25
2022/12/10 00:07:28+0000,-36.00,-41.27,-31.75,-34.65,-47.59,-52.26
2022/12/10 00:08:20+0000,-35.80,-41.14,-32.06,-34.41,-47.75,-52.59
2022/12/10 00:09:12+0000,-36.04,-41.31,-32.22,-34.64,-48.05,-52.96
2022/12/10 00:10:04+0000,-35.76,-40.74,-31.81,-35.10,-47.64,-52.91
2022/12/10 00:11:03+0000,-35.45,-41.12,-31.52,-34.47,-48.58,-52.41
2022/12/10 00:11:55+0000,-34.74,-41.71,-31.92,-34.43,-48.09,-52.84
2022/12/10 00:12:47+0000,-36.19,-41.92,-32.16,-34.88,-47.65,-53.43
2022/12/10 00:13:39+0000,-36.01,-40.77,-32.42,-35.15,-47.32,-52.52
2022/12/10 00:14:31+0000,-35.89,-40.72,-32.13,-34.62,-47.70,-52.83
2022/12/10 00:15:23+0000,-35.54,-40.77,-31.76,-34.65,-47.42,-53.07
2022/12/10 00:16:16+0000,-36.55,-41.01,-32.48,-35.07,-47.44,-52.72
2022/12/10 00:17:08+0000,-36.42,-41.25,-31.10,-33.85,-47.32,-52.81
2022/12/10 00:18:00+0000,-36.39,-40.62,-31.73,-34.81,-47.71,-52.62
2022/12/10 00:18:52+0000,-35.50,-41.43,-31.70,-34.33,-47.95,-52.83
2022/12/10 00:19:44+0000,-35.20,-40.65,-31.66,-35.11,-47.61,-53.30
2022/12/10 00:20:36+0000,-36.02,-40.14,-31.82,-34.69,-48.01,-52.74
2022/12/10 00:21:35+0000,-35.61,-40.83,-32.19,-34.57,-48.17,-53.20
2022/12/10 00:22:27+0000,-35.05,-40.49,-32.03,-34.21,-47.61,-53.15
2022/12/10 00:23:20+0000,-35.64,-41.39,-31.24,-35.42,-47.11,-52.73
2022/12/10 00:24:12+0000,-35.46,-40.47,-32.17,-33.82,-47.13,-53.15
2022/12/10 00:25:04+0000,-35.71,-40.52,-31.93,-35.58,-47.59,-53.30
2022/12/10 00:25:56+0000,-36.31,-40.70,-32.23,-34.27,-47.80,-52.91
2022/12/10 00:26:48+0000,-35.13,-39.56,-31.67,-35.45,-48.13,-52.97
2022/12/10 00:27:40+0000,-35.69,-40.35,-32.04,-34.84,-47.83,-52.76
2022/12/10 00:28:32+0000,-35.71,-40.60,-31.95,-34.91,-47.71,-52.46
2022/12/10 00:29:24+0000,-36.03,-40.47,-31.89,-35.04,-47.31,-52.64
2022/12/10 00:30:16+0000,-35.02,-40.18,-31.50,-34.87,-47.32,-53.99
2022/12/10 00:31:16+0000,-35.95,-40.64,-31.64,-34.69,-48.43,-53.00
2022/12/10 00:32:08+0000,-35.76,-40.43,-32.35,-37.67,-47.26,-53.43
2022/12/10 00:33:00+0000,-35.39,-40.57,-31.98,-36.45,-47.31,-52.82
2022/12/10 00:33:52+0000,-35.77,-40.77,-32.33,-36.48,-47.23,-52.87
2022/12/10 00:34:44+0000,-34.95,-40.91,-31.92,-36.26,-47.16,-53.11
2022/12/10 00:35:36+0000,-35.53,-40.48,-31.94,-36.58,-47.26,-52.62
2022/12/10 00:36:28+0000,-34.81,-40.85,-32.41,-36.63,-47.45,-52.65
2022/12/10 00:37:20+0000,-34.74,-40.41,-32.66,-37.39,-47.09,-52.68
2022/12/10 00:38:12+0000,-35.04,-40.85,-32.40,-36.18,-47.64,-53.31
2022/12/10 00:39:04+0000,-34.56,-40.86,-31.96,-37.65,-47.65,-53.08
2022/12/10 00:39:57+0000,-34.92,-40.95,-32.29,-36.91,-47.90,-52.64
2022/12/10 00:40:49+0000,-35.17,-39.05,-32.10,-37.71,-47.91,-52.45
2022/12/10 00:41:50+0000,-34.59,-39.50,-32.32,-36.61,-47.00,-52.79
2022/12/10 00:42:42+0000,-35.55,-39.93,-32.44,-36.36,-47.70,-52.88
2022/12/10 00:43:34+0000,-34.40,-40.79,-31.13,-36.41,-47.28,-52.96
2022/12/10 00:44:26+0000,-35.32,-39.45,-32.10,-36.87,-47.88,-52.92
2022/12/10 00:45:18+0000,-34.52,-40.41,-32.01,-37.08,-47.64,-52.84
2022/12/10 00:46:10+0000,-34.24,-39.61,-31.15,-37.85,-47.92,-53.12
2022/12/10 00:47:02+0000,-34.19,-40.36,-32.04,-34.53,-47.55,-52.76
2022/12/10 00:47:55+0000,-34.77,-40.51,-32.19,-35.36,-48.44,-52.94
2022/12/10 00:48:47+0000,-35.77,-40.43,-31.49,-34.44,-47.44,-53.28
2022/12/10 00:49:39+0000,-34.87,-41.18,-32.09,-34.41,-47.88,-52.82
2022/12/10 00:50:31+0000,-34.76,-39.75,-31.97,-34.23,-48.53,-52.34
2022/12/10 00:51:31+0000,-34.77,-41.08,-31.58,-34.32,-47.98,-52.81
2022/12/10 00:52:23+0000,-35.12,-41.16,-31.89,-36.96,-47.66,-51.78
2022/12/10 00:53:15+0000,-34.69,-40.27,-32.10,-36.37,-48.00,-53.03
2022/12/10 00:54:07+0000,-34.74,-41.40,-31.90,-37.68,-47.42,-53.18
2022/12/10 00:54:59+0000,-34.95,-39.33,-32.25,-36.88,-48.26,-53.30
2022/12/10 00:55:51+0000,-34.23,-40.19,-32.08,-35.27,-48.22,-53.18
2022/12/10 00:56:43+0000,-35.55,-39.52,-31.83,-35.02,-48.24,-53.43
2022/12/10 00:57:35+0000,-33.86,-40.97,-32.42,-37.47,-48.45,-53.25
2022/12/10 00:58:27+0000,-34.18,-40.59,-32.14,-35.44,-48.45,-53.48
2022/12/10 00:59:19+0000,-35.12,-40.89,-31.90,-35.33,-48.72,-53.63
2022/12/10 01:00:11+0000,-34.92,-43.35,-32.06,-34.46,-48.50,-53.70
2022/12/10 01:01:11+0000,-35.01,-43.52,-32.00,-35.16,-48.91,-53.69
2022/12/10 01:02:03+0000,-35.88,-43.58,-31.68,-33.78,-48.65,-53.60
2022/12/10 01:02:56+0000,-35.93,-42.72,-31.61,-35.10,-48.52,-53.41
2022/12/10 01:03:48+0000,-34.61,-42.70,-31.26,-34.87,-48.47,-53.32
2022/12/10 01:04:40+0000,-35.28,-42.69,-31.51,-34.98,-48.67,-53.53
2022/12/10 01:05:32+0000,-35.55,-42.34,-31.46,-34.87,-48.89,-53.62
2022/12/10 01:06:24+0000,-34.98,-43.81,-31.59,-35.99,-48.10,-53.99
2022/12/10 01:07:16+0000,-34.91,-43.52,-30.94,-34.27,-48.98,-53.81
2022/12/10 01:08:08+0000,-35.03,-43.77,-30.95,-35.06,-47.78,-53.22
2022/12/10 01:09:00+0000,-35.15,-43.71,-31.82,-33.79,-48.13,-53.85
2022/12/10 01:09:52+0000,-34.99,-43.26,-31.65,-34.54,-48.78,-53.58
2022/12/10 01:10:44+0000,-36.04,-43.13,-32.61,-35.22,-48.91,-53.48
2022/12/10 01:11:44+0000,-34.46,-43.91,-32.02,-34.85,-48.53,-51.53
2022/12/10 01:12:36+0000,-34.91,-43.81,-31.85,-35.16,-48.74,-52.37
2022/12/10 01:13:28+0000,-35.33,-42.84,-31.89,-34.15,-48.30,-53.31
2022/12/10 01:14:20+0000,-35.20,-44.07,-31.37,-35.14,-49.08,-53.61
2022/12/10 01:15:12+0000,-35.56,-43.77,-32.04,-34.86,-49.20,-53.77
2022/12/10 01:16:04+0000,-35.10,-42.29,-31.25,-35.36,-48.08,-53.06
2022/12/10 01:16:56+0000,-35.81,-42.96,-31.52,-35.49,-48.53,-53.38
2022/12/10 01:17:48+0000,-35.12,-42.69,-32.03,-35.15,-47.94,-53.33
2022/12/10 01:18:40+0000,-35.47,-44.39,-32.43,-35.60,-48.92,-53.78
2022/12/10 01:19:32+0000,-36.03,-42.18,-31.95,-34.45,-48.25,-53.46
2022/12/10 01:20:24+0000,-35.29,-44.13,-31.79,-35.74,-47.80,-53.19
2022/12/10 01:21:23+0000,-35.54,-42.68,-31.64,-35.47,-48.41,-53.55
2022/12/10 01:22:15+0000,-34.99,-43.66,-31.41,-36.40,-48.15,-53.09
2022/12/10 01:23:07+0000,-34.69,-42.99,-31.83,-34.51,-48.26,-53.11
2022/12/10 01:23:59+0000,-35.16,-42.92,-32.02,-35.12,-48.53,-53.58
2022/12/10 01:24:52+0000,-34.79,-43.24,-31.66,-34.58,-47.76,-53.58
2022/12/10 01:25:44+0000,-34.72,-43.06,-31.75,-35.14,-48.54,-53.74
2022/12/10 01:26:36+0000,-34.61,-45.09,-32.11,-35.42,-48.60,-53.59
2022/12/10 01:27:28+0000,-34.34,-43.02,-32.42,-32.75,-49.40,-53.68
2022/12/10 01:28:20+0000,-35.79,-43.82,-31.89,-35.06,-48.50,-53.96
2022/12/10 01:29:12+0000,-33.75,-43.40,-31.59,-34.71,-49.08,-53.76
2022/12/10 01:30:04+0000,-34.33,-43.21,-31.75,-35.00,-49.11,-54.30
2022/12/10 01:31:05+0000,-34.99,-43.50,-31.34,-35.52,-49.93,-54.17
2022/12/10 01:31:57+0000,-34.64,-42.77,-31.98,-35.00,-50.15,-54.62
2022/12/10 01:32:49+0000,-34.92,-43.34,-32.07,-35.42,-50.21,-53.61
2022/12/10 01:33:41+0000,-35.03,-42.77,-31.63,-35.34,-49.03,-53.11
2022/12/10 01:34:33+0000,-35.16,-43.26,-31.71,-34.74,-48.43,-52.89
2022/12/10 01:35:25+0000,-35.28,-43.40,-31.24,-34.91,-48.17,-53.44
2022/12/10 01:36:17+0000,-35.57,-42.72,-31.55,-34.98,-48.48,-52.96
2022/12/10 01:37:09+0000,-35.81,-43.46,-31.13,-35.17,-49.03,-53.44
2022/12/10 01:38:01+0000,-35.25,-43.96,-31.35,-34.63,-48.80,-53.19
2022/12/10 01:38:53+0000,-34.66,-43.80,-31.84,-35.35,-48.72,-53.51
2022/12/10 01:39:45+0000,-35.02,-43.52,-31.48,-35.18,-49.26,-52.90
2022/12/10 01:40:37+0000,-35.51,-44.54,-31.41,-35.53,-48.70,-53.52
2022/12/10 01:41:37+0000,-35.34,-44.90,-31.77,-35.32,-48.98,-52.30
2022/12/10 01:42:29+0000,-35.92,-43.22,-31.88,-34.05,-48.55,-53.47
2022/12/10 01:43:21+0000,-35.62,-44.36,-32.07,-35.54,-48.83,-53.52
2022/12/10 01:44:13+0000,-34.75,-42.93,-31.78,-35.21,-49.43,-53.21
2022/12/10 01:45:05+0000,-35.52,-42.81,-31.88,-35.19,-48.40,-53.01
2022/12/10 01:45:57+0000,-35.59,-43.41,-31.73,-34.95,-49.18,-53.22
2022/12/10 01:46:49+0000,-34.88,-43.73,-31.63,-34.72,-49.18,-53.65
2022/12/10 01:47:41+0000,-34.99,-43.12,-32.20,-35.22,-48.64,-53.43
2022/12/10 01:48:33+0000,-35.69,-43.09,-31.79,-35.11,-47.09,-51.79
2022/12/10 01:49:25+0000,-35.35,-43.84,-31.79,-34.57,-49.08,-52.90
2022/12/10 01:50:18+0000,-35.56,-42.75,-31.50,-35.24,-48.69,-53.00
2022/12/10 01:51:17+0000,-35.28,-42.93,-31.71,-35.55,-49.45,-53.87
2022/12/10 01:52:09+0000,-35.34,-43.51,-31.36,-34.11,-49.62,-53.53
2022/12/10 01:53:01+0000,-35.67,-43.10,-31.44,-34.79,-49.68,-54.63
2022/12/10 01:53:53+0000,-34.86,-43.49,-31.62,-34.67,-49.35,-53.46
2022/12/10 01:54:45+0000,-35.75,-43.35,-32.13,-36.39,-50.02,-54.16
2022/12/10 01:55:37+0000,-33.71,-44.18,-32.38,-35.56,-49.90,-54.17
2022/12/10 01:56:29+0000,-34.89,-43.00,-32.27,-35.50,-49.97,-53.88
2022/12/10 01:57:21+0000,-35.33,-44.23,-31.57,-34.45,-48.95,-53.88
2022/12/10 01:58:13+0000,-34.77,-44.03,-31.77,-34.84,-48.77,-53.58
2022/12/10 01:59:05+0000,-34.54,-43.29,-31.83,-35.22,-49.04,-53.94
2022/12/10 01:59:57+0000,-34.76,-41.81,-31.86,-34.91,-49.50,-54.87
2022/12/10 02:00:49+0000,-34.94,-43.04,-31.10,-35.44,-49.50,-54.65
2022/12/10 02:01:49+0000,-35.64,-44.24,-31.59,-34.55,-49.39,-54.08
2022/12/10 02:02:41+0000,-34.89,-43.74,-31.80,-35.26,-48.81,-53.73
2022/12/10 02:03:33+0000,-35.61,-42.97,-31.86,-34.94,-49.89,-54.54
2022/12/10 02:04:25+0000,-35.76,-42.29,-31.51,-34.27,-48.92,-54.32
2022/12/10 02:05:18+0000,-36.22,-43.47,-31.86,-34.84,-49.16,-54.67
2022/12/10 02:06:10+0000,-35.43,-41.83,-32.31,-34.64,-48.94,-54.43
2022/12/10 02:07:02+0000,-34.96,-42.56,-31.94,-35.88,-49.06,-54.44
2022/12/10 02:07:54+0000,-35.91,-41.99,-31.66,-34.57,-49.24,-54.33
2022/12/10 02:08:46+0000,-35.67,-42.99,-31.97,-34.79,-49.17,-54.12
2022/12/10 02:09:38+0000,-36.36,-41.72,-32.18,-34.86,-48.98,-54.38
2022/12/10 02:10:30+0000,-35.16,-41.93,-31.98,-34.76,-49.50,-54.58
2022/12/10 02:11:29+0000,-35.85,-42.58,-32.35,-34.95,-48.84,-54.80
2022/12/10 02:12:21+0000,-35.57,-44.12,-32.35,-35.20,-49.38,-54.56
2022/12/10 02:13:13+0000,-35.42,-42.97,-31.89,-34.92,-49.16,-54.06
2022/12/10 02:14:05+0000,-35.25,-43.55,-32.12,-34.73,-49.20,-54.39
2022/12/10 02:14:57+0000,-35.21,-42.29,-32.47,-34.99,-48.82,-54.04
2022/12/10 02:15:49+0000,-36.03,-41.77,-31.95,-34.61,-48.89,-54.20
2022/12/10 02:16:41+0000,-34.63,-43.48,-32.36,-34.96,-49.39,-54.42
2022/12/10 02:17:33+0000,-36.04,-43.49,-31.66,-34.71,-49.06,-54.82
2022/12/10 02:18:25+0000,-34.91,-42.08,-32.23,-34.37,-48.83,-54.53
2022/12/10 02:19:17+0000,-33.85,-40.97,-32.11,-34.66,-48.52,-53.87
2022/12/10 02:20:10+0000,-34.23,-40.65,-32.07,-34.99,-48.82,-53.95
2022/12/10 02:21:09+0000,-34.29,-42.03,-32.28,-35.07,-48.71,-53.41
2022/12/10 02:22:01+0000,-34.17,-42.35,-31.84,-34.68,-48.79,-53.48
2022/12/10 02:22:53+0000,-34.21,-42.09,-31.91,-35.00,-48.19,-53.35
2022/12/10 02:23:45+0000,-33.80,-42.12,-32.25,-34.50,-48.26,-52.53
2022/12/10 02:24:37+0000,-34.71,-42.54,-32.01,-34.67,-48.18,-53.19
2022/12/10 02:25:30+0000,-34.24,-42.74,-32.07,-37.15,-48.34,-52.63
2022/12/10 02:26:22+0000,-34.14,-43.11,-32.18,-34.84,-48.21,-52.90
2022/12/10 02:27:14+0000,-34.19,-43.68,-32.23,-35.06,-48.65,-51.79
2022/12/10 02:28:06+0000,-33.39,-43.79,-31.93,-35.13,-48.80,-53.24
2022/12/10 02:28:58+0000,-34.33,-43.51,-31.85,-34.74,-49.14,-54.48
2022/12/10 02:29:50+0000,-33.94,-41.93,-32.16,-35.14,-49.15,-54.10
2022/12/10 02:30:42+0000,-31.80,-42.97,-32.21,-34.55,-48.82,-53.83
2022/12/10 02:31:48+0000,-33.90,-43.08,-31.89,-35.45,-48.60,-54.12
2022/12/10 02:32:40+0000,-33.43,-42.65,-32.16,-35.11,-48.58,-53.59
2022/12/10 02:33:32+0000,-34.44,-42.51,-31.66,-36.55,-48.91,-53.89
2022/12/10 02:34:24+0000,-33.82,-43.23,-31.69,-37.76,-48.94,-53.80
2022/12/10 02:35:16+0000,-34.46,-42.50,-31.65,-36.66,-48.64,-53.56
2022/12/10 02:36:08+0000,-33.74,-43.09,-31.86,-34.56,-48.09,-53.07
2022/12/10 02:37:00+0000,-34.12,-43.45,-31.78,-34.94,-48.66,-53.61
2022/12/10 02:37:52+0000,-34.42,-43.54,-32.03,-35.54,-48.60,-53.99
2022/12/10 02:38:44+0000,-34.31,-43.67,-31.90,-34.96,-49.03,-53.58
2022/12/10 02:39:36+0000,-33.83,-42.94,-32.33,-35.90,-48.35,-53.63
2022/12/10 02:40:29+0000,-34.10,-43.01,-32.69,-34.63,-48.03,-54.34
2022/12/10 02:41:32+0000,-32.95,-42.19,-31.82,-35.43,-48.48,-53.50
2022/12/10 02:42:24+0000,-33.35,-41.74,-32.36,-35.07,-48.27,-53.71
2022/12/10 02:43:16+0000,-33.98,-42.68,-32.58,-34.61,-48.24,-53.48
2022/12/10 02:44:08+0000,-34.84,-42.97,-32.08,-34.38,-48.80,-53.76
2022/12/10 02:45:00+0000,-34.64,-43.37,-32.02,-35.09,-47.93,-53.88
2022/12/10 02:45:52+0000,-33.99,-42.98,-32.30,-34.80,-47.61,-54.45
2022/12/10 02:46:45+0000,-33.74,-41.77,-31.68,-34.83,-47.78,-53.31
2022/12/10 02:47:37+0000,-35.15,-44.03,-31.98,-35.22,-48.74,-53.65
2022/12/10 02:48:29+0000,-33.44,-40.98,-32.35,-35.13,-48.85,-53.23
2022/12/10 02:49:21+0000,-32.79,-42.87,-32.17,-34.91,-48.88,-53.47
2022/12/10 02:50:13+0000,-33.54,-41.98,-31.76,-34.93,-48.54,-53.42
2022/12/10 02:51:11+0000,-33.59,-42.73,-32.21,-35.79,-48.78,-53.85
2022/12/10 02:52:03+0000,-34.27,-42.74,-31.90,-35.05,-48.84,-53.67
2022/12/10 02:52:55+0000,-34.44,-42.34,-32.19,-34.35,-48.95,-53.19
2022/12/10 02:53:47+0000,-34.32,-42.64,-31.99,-35.63,-48.81,-53.85
2022/12/10 02:54:39+0000,-33.28,-42.55,-32.65,-35.79,-48.60,-53.39
2022/12/10 02:55:31+0000,-34.85,-43.03,-31.97,-35.13,-47.28,-53.37
2022/12/10 02:56:23+0000,-33.88,-42.60,-32.49,-35.16,-48.67,-54.00
2022/12/10 02:57:16+0000,-33.91,-42.69,-32.47,-34.87,-48.19,-53.23
2022/12/10 02:58:08+0000,-33.76,-43.30,-32.42,-35.58,-48.15,-53.06
2022/12/10 02:59:00+0000,-33.84,-42.72,-32.00,-34.97,-48.78,-53.15
2022/12/10 02:59:52+0000,-33.76,-43.50,-32.34,-35.41,-48.89,-50.36
2022/12/10 03:00:44+0000,-33.67,-42.84,-32.28,-34.83,-48.62,-52.96
2022/12/10 03:01:49+0000,-34.15,-42.54,-32.11,-35.35,-48.06,-53.56
2022/12/10 03:02:41+0000,-33.63,-42.50,-32.05,-34.63,-49.07,-52.81
2022/12/10 03:03:33+0000,-35.35,-42.55,-32.22,-34.19,-48.10,-53.88
2022/12/10 03:04:25+0000,-34.00,-43.45,-32.26,-35.49,-48.91,-53.91
2022/12/10 03:05:17+0000,-33.29,-42.83,-32.26,-34.79,-47.64,-52.99
2022/12/10 03:06:09+0000,-34.15,-42.69,-32.56,-34.26,-48.66,-53.97
2022/12/10 03:07:01+0000,-33.97,-43.12,-32.31,-34.60,-49.01,-53.99
2022/12/10 03:07:53+0000,-33.60,-42.69,-32.50,-34.60,-48.51,-53.37
2022/12/10 03:08:45+0000,-33.76,-43.45,-32.56,-34.85,-48.50,-53.82
2022/12/10 03:09:37+0000,-33.25,-43.48,-32.03,-34.86,-48.31,-53.70
2022/12/10 03:10:29+0000,-34.61,-42.38,-32.43,-34.26,-48.89,-53.61
2022/12/10 03:11:28+0000,-34.78,-43.45,-31.83,-34.56,-48.30,-53.93
2022/12/10 03:12:20+0000,-34.46,-42.91,-32.84,-35.46,-48.55,-53.25
2022/12/10 03:13:12+0000,-33.58,-42.89,-32.40,-34.35,-48.61,-53.70
2022/12/10 03:14:04+0000,-33.94,-43.19,-31.76,-34.47,-48.89,-53.82
2022/12/10 03:14:56+0000,-33.68,-43.53,-32.31,-34.78,-48.43,-53.85
2022/12/10 03:15:48+0000,-34.34,-43.36,-32.21,-35.44,-48.80,-54.28
2022/12/10 03:16:40+0000,-33.51,-43.30,-32.04,-34.96,-48.36,-54.02
2022/12/10 03:17:32+0000,-34.79,-42.99,-32.30,-35.43,-49.19,-54.02
2022/12/10 03:18:24+0000,-33.78,-43.61,-32.04,-35.16,-48.75,-54.21
2022/12/10 03:19:16+0000,-33.63,-43.72,-32.38,-35.20,-49.01,-53.59
2022/12/10 03:20:08+0000,-34.13,-43.51,-31.57,-34.69,-49.26,-54.21
2022/12/10 03:21:07+0000,-34.95,-43.30,-32.37,-34.79,-48.27,-53.61
2022/12/10 03:21:59+0000,-33.95,-43.44,-32.33,-34.33,-48.10,-54.41
2022/12/10 03:22:52+0000,-34.66,-43.35,-31.77,-35.56,-49.34,-53.92
2022/12/10 03:23:44+0000,-34.21,-42.90,-32.29,-34.40,-48.85,-54.42
2022/12/10 03:24:36+0000,-34.13,-43.22,-32.24,-35.10,-49.26,-53.42
2022/12/10 03:25:28+0000,-33.85,-43.20,-31.86,-35.37,-48.81,-53.97
2022/12/10 03:26:20+0000,-33.08,-42.65,-32.61,-34.93,-49.14,-53.94
2022/12/10 03:27:12+0000,-33.67,-42.15,-32.17,-35.06,-49.11,-52.91
2022/12/10 03:28:04+0000,-33.11,-43.15,-32.50,-35.22,-49.03,-53.33
2022/12/10 03:28:56+0000,-33.84,-43.14,-31.89,-35.23,-49.65,-53.39
2022/12/10 03:29:48+0000,-33.95,-43.09,-32.02,-35.37,-49.19,-53.83
2022/12/10 03:30:40+0000,-33.90,-42.56,-32.08,-35.49,-49.10,-53.61
2022/12/10 03:31:40+0000,-33.20,-42.94,-31.60,-35.71,-48.86,-53.25
2022/12/10 03:32:32+0000,-34.72,-42.99,-31.86,-35.74,-48.70,-53.20
2022/12/10 03:33:24+0000,-33.92,-42.87,-31.86,-34.30,-49.20,-53.89
2022/12/10 03:34:16+0000,-34.44,-43.18,-32.00,-35.49,-48.33,-53.91
2022/12/10 03:35:08+0000,-33.97,-42.88,-32.05,-34.71,-48.64,-53.69
2022/12/10 03:36:00+0000,-33.96,-43.15,-32.07,-34.71,-48.62,-53.29
2022/12/10 03:36:52+0000,-33.74,-43.28,-31.75,-34.81,-49.43,-53.18
2022/12/10 03:37:44+0000,-34.10,-43.08,-32.38,-35.37,-48.40,-53.54
2022/12/10 03:38:36+0000,-33.77,-43.63,-32.23,-34.99,-48.92,-53.04
2022/12/10 03:39:28+0000,-34.21,-43.22,-32.32,-34.82,-49.21,-53.68
2022/12/10 03:40:20+0000,-33.45,-44.03,-32.19,-34.99,-49.13,-53.95
2022/12/10 03:41:21+0000,-33.92,-43.04,-31.94,-34.84,-48.83,-53.23
2022/12/10 03:42:13+0000,-33.86,-43.44,-31.79,-35.64,-49.38,-53.08
2022/12/10 03:43:05+0000,-34.35,-43.07,-32.11,-35.28,-48.42,-53.39
2022/12/10 03:43:57+0000,-34.56,-43.32,-31.74,-34.85,-48.31,-53.92
2022/12/10 03:44:49+0000,-33.89,-43.33,-31.84,-35.05,-48.97,-54.14
2022/12/10 03:45:41+0000,-33.86,-43.16,-31.58,-35.10,-49.13,-53.84
2022/12/10 03:46:33+0000,-32.69,-42.81,-32.21,-35.64,-48.77,-53.77
2022/12/10 03:47:25+0000,-34.33,-43.78,-32.14,-34.68,-48.30,-53.79
2022/12/10 03:48:17+0000,-33.81,-42.57,-32.21,-34.42,-48.57,-53.59
2022/12/10 03:49:09+0000,-33.72,-43.64,-31.91,-35.03,-48.64,-53.09
2022/12/10 03:50:01+0000,-34.21,-42.86,-31.91,-34.98,-49.74,-53.32
2022/12/10 03:51:01+0000,-34.69,-43.38,-32.15,-34.85,-48.17,-53.95
2022/12/10 03:51:53+0000,-34.11,-43.51,-32.50,-35.58,-49.19,-53.22
2022/12/10 03:52:45+0000,-33.63,-43.26,-32.71,-34.38,-48.77,-54.20
2022/12/10 03:53:37+0000,-33.44,-43.90,-32.27,-35.15,-49.48,-51.63
2022/12/10 03:54:29+0000,-34.06,-43.52,-32.20,-34.04,-48.55,-51.96
2022/12/10 03:55:21+0000,-34.32,-43.94,-32.39,-34.64,-49.15,-52.48
2022/12/10 03:56:13+0000,-33.85,-44.09,-32.11,-34.67,-48.98,-53.11
2022/12/10 03:57:05+0000,-34.65,-43.63,-33.15,-34.87,-48.70,-52.31
2022/12/10 03:57:57+0000,-33.75,-43.75,-32.36,-35.00,-48.75,-52.06
2022/12/10 03:58:49+0000,-33.99,-43.91,-31.99,-35.00,-49.11,-53.79
2022/12/10 03:59:41+0000,-33.84,-43.64,-32.29,-34.32,-48.77,-53.43
2022/12/10 04:00:33+0000,-33.82,-43.85,-32.50,-34.47,-49.13,-53.36
2022/12/10 04:01:33+0000,-33.94,-43.40,-31.03,-35.11,-48.17,-53.73
2022/12/10 04:02:25+0000,-34.75,-43.58,-31.55,-35.73,-48.81,-53.01
2022/12/10 04:03:17+0000,-34.32,-43.65,-31.74,-35.18,-48.74,-53.71
2022/12/10 04:04:09+0000,-33.77,-43.65,-31.79,-35.15,-48.79,-53.18
2022/12/10 04:05:01+0000,-34.03,-43.31,-31.83,-35.11,-48.92,-54.01
2022/12/10 04:05:53+0000,-34.04,-43.26,-32.19,-34.37,-49.42,-54.31
2022/12/10 04:06:45+0000,-34.31,-42.85,-31.74,-34.94,-48.25,-53.03
2022/12/10 04:07:37+0000,-34.10,-43.80,-32.34,-35.63,-49.04,-53.94
2022/12/10 04:08:29+0000,-34.95,-43.35,-31.95,-34.64,-49.10,-54.07
2022/12/10 04:09:21+0000,-33.52,-43.22,-31.47,-35.11,-49.07,-53.91
2022/12/10 04:10:13+0000,-33.15,-43.57,-31.45,-34.60,-49.20,-53.48
2022/12/10 04:11:13+0000,-33.92,-42.23,-32.30,-35.44,-48.67,-53.91
2022/12/10 04:12:05+0000,-34.12,-43.66,-32.51,-35.38,-48.99,-53.43
2022/12/10 04:12:57+0000,-33.74,-43.53,-32.17,-34.83,-49.12,-53.69
2022/12/10 04:13:49+0000,-34.48,-44.26,-31.69,-36.51,-49.68,-53.83
2022/12/10 04:14:41+0000,-34.26,-44.19,-31.84,-34.78,-48.95,-54.25
2022/12/10 04:15:33+0000,-34.47,-43.50,-31.75,-34.81,-49.22,-53.43
2022/12/10 04:16:25+0000,-33.75,-44.02,-31.92,-35.34,-49.57,-54.33
2022/12/10 04:17:17+0000,-34.40,-43.95,-31.89,-35.49,-49.60,-54.01
2022/12/10 04:18:09+0000,-35.46,-44.68,-31.36,-34.93,-49.54,-53.96
2022/12/10 04:19:02+0000,-34.32,-44.00,-31.75,-35.22,-49.67,-54.08
2022/12/10 04:19:54+0000,-34.74,-44.37,-32.24,-34.84,-49.14,-53.47
2022/12/10 04:20:46+0000,-34.16,-44.81,-31.62,-36.10,-49.26,-53.53
2022/12/10 04:21:45+0000,-34.56,-44.62,-31.87,-35.58,-48.83,-53.39
2022/12/10 04:22:37+0000,-34.06,-43.79,-32.39,-35.17,-48.67,-54.21
2022/12/10 04:23:29+0000,-34.17,-44.03,-32.33,-35.27,-49.22,-54.07
2022/12/10 04:24:21+0000,-34.62,-44.11,-32.80,-35.02,-49.04,-54.11
2022/12/10 04:25:13+0000,-33.34,-44.36,-32.68,-34.92,-48.47,-53.69
2022/12/10 04:26:05+0000,-34.37,-43.56,-32.31,-34.56,-48.60,-54.22
2022/12/10 04:26:57+0000,-34.78,-44.12,-31.98,-35.01,-48.37,-54.02
2022/12/10 04:27:50+0000,-33.77,-43.81,-32.19,-34.93,-49.37,-54.54
2022/12/10 04:28:42+0000,-34.07,-43.95,-31.90,-36.19,-48.79,-52.79
2022/12/10 04:29:34+0000,-33.96,-43.78,-32.58,-34.91,-48.81,-53.88
2022/12/10 04:30:26+0000,-33.77,-43.37,-32.89,-34.91,-48.80,-53.55
2022/12/10 04:31:25+0000,-33.74,-44.60,-31.97,-34.72,-48.74,-54.05
2022/12/10 04:32:17+0000,-33.44,-44.29,-32.29,-34.56,-49.58,-53.78
2022/12/10 04:33:09+0000,-34.26,-44.56,-31.51,-34.78,-49.31,-54.05
2022/12/10 04:34:01+0000,-34.43,-43.46,-32.42,-35.03,-49.36,-53.64
2022/12/10 04:34:53+0000,-34.44,-43.42,-32.43,-34.98,-49.00,-54.19
2022/12/10 04:35:45+0000,-34.60,-43.53,-32.38,-35.03,-49.50,-53.23
2022/12/10 04:36:37+0000,-34.91,-44.21,-32.44,-34.20,-49.49,-53.83
2022/12/10 04:37:29+0000,-35.38,-44.46,-32.22,-35.20,-48.92,-53.34
2022/12/10 04:38:21+0000,-34.68,-44.45,-32.92,-34.54,-50.05,-53.55
2022/12/10 04:39:13+0000,-34.14,-43.94,-32.79,-33.94,-49.13,-53.65
2022/12/10 04:40:06+0000,-34.44,-44.94,-32.98,-34.68,-49.34,-53.59
2022/12/10 04:41:05+0000,-34.39,-43.84,-32.72,-35.20,-49.03,-53.72
2022/12/10 04:41:57+0000,-35.24,-45.22,-32.62,-34.67,-48.90,-53.61
2022/12/10 04:42:49+0000,-34.30,-43.60,-32.83,-34.62,-48.15,-54.12
2022/12/10 04:43:41+0000,-34.12,-43.94,-32.29,-34.92,-49.11,-53.98
2022/12/10 04:44:33+0000,-34.28,-44.21,-32.32,-35.21,-48.42,-53.96